Wind_Speed
7 5 11 13 14 15 14 16 7 9 7 10 10 7 12 13 11 13 9 12 11 12 16 17 15 15 16 18 24 29 32 37 35 31 32 33 30 24 29 25 20 23 22 21
9 20 14 17 18 16 17 9 6 7 8 12 7 8 10 10 19 21 18 14 14 13 14 19 22 22 22 25 23 25 34 37 38 36 33 29 29 22 24 27 28 27 27 26
17 16 19 20 18 14 7 5 6 9 8 6 1 6 4 7 18 14 17 17 17 18 17 16 22 26 26 26 30 29 32 37 38 36 32 24 24 27 30 33 33 30 27 27
14 21 21 18 21 8 3 9 11 6 3 4 2 5 4 5 14 19 16 16 18 19 17 17 21 26 29 31 31 32 34 41 39 37 30 27 25 22 27 33 32 28 29 29
17 8 16 20 11 6 7 8 3 3 6 4 4 0 7 7 9 16 20 20 20 21 21 21 21 29 32 36 34 34 33 33 36 36 35 30 31 32 29 30 29 27 29 27
15 14 18 18 9 9 6 4 5 2 2 5 8 3 7 5 15 17 20 22 22 21 21 21 30 30 31 37 37 35 34 35 37 38 38 36 33 32 31 29 31 30 30 27
18 23 19 15 11 6 5 4 2 4 2 5 9 6 10 8 8 8 24 21 23 23 22 21 21 26 32 35 36 37 36 31 39 40 39 41 36 38 35 34 34 34 33 30
14 16 20 11 15 8 8 10 5 6 3 3 13 5 6 5 6 9 10 20 22 21 22 24 24 32 36 38 38 37 37 37 35 40 40 41 36 37 39 37 37 38 38 35
11 14 7 21 5 10 4 5 9 6 1 2 5 7 1 4 5 5 6 7 17 21 21 24 23 33 36 40 43 46 41 37 35 37 41 42 43 38 35 36 38 38 37 33
4 6 15 17 8 8 10 3 2 1 7 6 4 5 3 3 4 4 5 8 8 10 18 19 20 31 36 40 43 42 43 42 44 39 37 38 41 41 39 33 37 39 33 28
18 11 10 8 10 13 4 8 3 9 4 6 3 5 5 7 4 2 2 8 8 8 6 12 23 31 37 38 38 40 41 39 36 35 37 38 40 42 39 34 34 32 30 27
10 4 10 18 22 14 16 12 10 5 5 4 5 5 5 8 10 8 9 8 8 8 9 8 5 18 31 36 35 36 37 38 36 36 37 40 42 42 38 30 30 32 30 28
5 2 7 14 12 11 21 9 13 8 5 6 6 6 6 8 8 8 5 6 2 6 7 8 6 5 23 30 30 29 34 38 36 31 38 35 36 36 29 28 27 30 29 27
7 5 15 14 12 4 5 9 8 7 5 4 6 5 6 8 6 7 6 8 5 5 6 7 7 8 12 29 25 27 28 32 35 39 32 30 32 35 29 30 33 30 28 26
2 5 8 11 20 18 19 12 14 11 7 10 10 15 11 8 7 6 8 6 7 8 7 6 8 8 9 17 26 29 28 27 25 22 24 28 32 30 30 33 31 29 28 33
5 3 4 11 14 15 9 19 11 14 11 7 8 10 8 8 5 6 8 9 7 9 8 8 7 6 5 14 20 23 26 26 26 25 24 25 24 25 26 27 28 31 32 29
4 4 2 7 10 12 8 15 11 17 13 10 9 8 6 5 3 3 4 6 6 6 8 7 7 8 12 17 24 24 26 24 23 25 22 22 23 24 24 25 26 28 29 28
4 3 2 2 1 13 5 7 6 12 9 4 1 2 3 5 4 5 6 6 7 8 7 8 8 12 14 22 25 27 27 27 26 24 22 21 21 22 22 24 25 25 27 21
6 3 3 2 6 6 12 3 5 5 6 4 2 2 3 5 4 6 4 6 5 6 6 7 16 18 21 22 24 27 25 25 24 23 23 23 24 25 24 23 26 26 21 18
6 8 4 2 1 7 1 8 2 2 4 5 1 4 6 3 4 4 3 7 8 8 14 16 20 21 22 22 23 24 21 21 19 21 21 22 22 24 25 25 24 21 20 16
4 3 4 1 3 7 6 8 3 5 6 6 2 3 1 4 5 6 7 6 7 8 17 21 21 19 20 20 19 18 18 17 19 20 20 22 22 23 25 24 22 19 17 19
5 6 2 4 4 5 8 3 4 4 7 5 3 3 4 8 8 8 7 8 8 8 11 20 17 18 20 19 19 17 15 19 21 22 22 23 23 20 23 19 18 19 20 20
5 7 6 10 6 7 3 2 5 6 6 3 3 4 8 9 7 9 8 8 8 7 10 16 19 18 19 19 18 16 18 25 26 24 20 19 20 19 21 20 18 18 16 14
4 5 2 3 7 11 5 5 5 7 10 7 5 7 6 7 9 7 7 7 7 8 8 18 20 16 16 17 16 24 25 24 24 23 23 21 22 21 21 20 19 19 16 14
6 11 10 6 8 4 8 9 7 11 13 8 3 3 5 8 6 6 6 7 7 8 16 21 20 21 20 26 23 22 24 25 25 24 22 21 22 22 21 18 14 12 10 7
6 6 6 5 8 7 5 2 7 16 11 9 7 5 5 8 9 7 8 6 10 15 22 23 22 27 27 31 30 26 23 27 29 26 26 23 21 18 15 12 11 9 6 4
Wind_Direction
230 217 228 229 227 236 260 277 234 244 233 209 227 188 206 230 137 139 158 148 154 149 151 151 154 160 159 163 156 154 161 165 169 165 163 171 180 188 186 191 201 223 232 223
225 231 223 238 246 248 259 272 303 307 196 212 251 273 193 182 160 164 164 158 155 150 161 168 170 169 173 164 162 165 170 175 182 183 186 179 189 202 212 213 216 218 220 215
214 239 214 238 248 253 254 273 288 267 289 336 45 319 154 177 161 173 164 159 160 162 167 179 182 175 177 179 183 178 179 179 183 183 187 201 211 213 213 215 216 217 218 214
243 240 245 236 238 230 257 256 260 304 12 259 121 276 275 179 159 168 171 170 170 168 171 181 178 175 180 191 190 184 182 179 180 188 204 211 206 199 206 212 215 214 213 216
229 234 230 241 244 206 226 268 304 348 317 343 288 20 272 256 182 181 179 186 180 176 173 179 182 183 182 188 192 192 195 197 201 204 206 214 209 205 207 212 209 210 213 216
247 236 244 243 231 214 208 290 307 301 254 303 274 172 277 218 188 198 185 187 184 181 181 182 184 186 191 190 195 200 203 203 204 206 210 216 212 204 202 205 205 206 210 213
242 255 259 240 224 214 169 163 323 346 10 234 350 322 233 225 224 209 182 182 186 184 180 182 185 188 193 194 197 199 206 205 203 207 209 215 214 209 202 205 202 201 203 211
222 249 247 230 211 189 215 188 160 200 179 338 14 280 291 227 212 141 167 187 185 181 185 186 190 191 195 196 198 202 208 215 211 212 214 215 213 210 210 210 209 208 212 217
194 234 261 235 207 150 232 187 198 133 117 108 232 280 12 63 332 121 155 173 178 187 186 191 191 193 194 194 197 200 205 212 212 211 214 216 217 215 212 211 210 212 217 220
225 229 239 248 189 200 187 183 119 311 161 208 239 253 205 49 280 291 89 109 121 148 188 197 195 197 198 200 201 199 201 205 209 214 220 212 215 217 214 210 207 213 212 214
215 235 271 287 215 186 179 211 157 240 204 180 205 271 222 186 180 78 261 157 160 168 179 172 202 205 200 204 203 202 204 208 210 212 214 206 211 213 212 211 206 205 205 200
189 167 228 256 274 234 195 196 191 152 248 189 144 262 170 172 250 190 242 170 181 177 185 188 196 176 198 204 202 201 203 204 209 207 211 208 210 212 214 204 200 203 200 201
154 139 276 274 283 267 197 184 199 192 161 194 139 252 235 231 221 206 150 203 142 185 178 187 165 147 174 197 205 202 197 201 203 207 213 215 203 202 197 195 198 200 194 193
117 179 227 233 242 211 277 207 217 194 177 225 196 220 271 258 239 228 195 163 201 231 209 191 182 178 164 184 195 192 192 197 197 207 211 198 191 193 193 197 190 194 190 190
132 220 245 253 216 243 237 209 222 228 208 208 249 271 253 239 244 198 175 189 164 231 226 197 190 187 176 149 162 185 179 183 191 179 174 181 186 189 189 184 182 189 192 188
6 274 309 246 262 243 219 278 226 225 235 241 206 229 220 236 233 198 211 190 200 216 136 128 113 155 156 113 120 135 148 158 167 162 156 165 165 171 178 179 179 177 176 176
91 332 209 237 245 278 285 215 230 260 239 200 227 233 245 229 202 198 155 143 114 115 134 119 85 113 116 118 126 123 130 143 136 132 138 148 159 162 168 172 171 170 171 168
111 332 62 280 123 239 232 162 202 232 241 202 167 318 293 250 231 110 133 124 134 130 128 96 104 99 97 118 121 126 133 130 131 133 143 157 165 169 170 169 167 168 165 162
109 88 63 192 211 322 299 213 189 205 257 194 208 291 306 304 120 15 104 98 129 131 121 114 117 119 117 116 126 129 130 134 139 147 155 163 167 159 159 158 163 163 160 157
134 102 119 26 330 214 196 247 342 66 269 281 266 298 279 191 137 222 173 112 102 105 110 117 121 122 126 137 142 134 135 139 140 146 150 161 164 157 154 158 157 158 160 166
117 77 150 184 269 292 246 220 123 190 233 253 154 255 177 135 193 155 145 119 118 122 116 126 127 126 135 145 147 132 139 136 144 149 153 153 152 152 156 156 159 166 168 155
149 144 175 162 234 222 272 33 205 219 257 233 295 290 135 136 129 139 143 134 123 122 122 133 129 132 146 148 146 138 142 148 146 145 143 150 158 153 156 161 155 151 149 141
177 173 177 183 200 234 314 290 100 38 281 319 276 95 150 140 161 158 149 138 133 126 125 130 122 134 148 150 149 148 142 146 143 144 144 149 150 147 150 140 133 136 144 145
253 179 197 96 254 238 245 296 1 343 310 312 352 84 149 163 161 147 140 134 122 128 123 126 117 115 126 145 143 136 137 141 138 125 125 123 120 116 121 120 120 123 129 135
199 177 200 218 257 183 206 191 203 304 284 258 224 150 119 151 155 134 131 127 127 120 109 107 95 89 86 100 113 128 132 135 116 110 108 104 102 104 100 95 91 104 109 133
233 202 180 219 216 180 213 184 205 213 244 268 221 196 124 152 155 134 130 122 109 101 102 99 93 82 70 70 68 77 100 112 105 90 91 89 90 93 91 98 98 92 88 85
Height
756 773 775 768 760 751 754 755 761 750 736 745 744 750 750 741 747 761 769 770 774 773 779 783 786 785 784 789 788 789 793 798 803 808 815 818 818 820 822 824 829 833 836 840
762 762 751 746 745 745 744 751 753 738 729 736 739 739 730 735 740 749 758 764 770 774 778 783 783 784 785 786 790 792 795 798 803 807 811 814 816 818 823 826 830 832 836 838
756 739 737 741 742 743 741 747 749 749 733 729 733 747 735 726 737 746 747 751 759 764 770 775 778 781 782 784 784 787 789 794 799 801 810 812 816 817 820 822 825 827 830 832
746 731 736 736 739 735 749 732 734 738 745 768 736 775 740 732 735 740 744 747 751 757 764 768 770 774 775 777 781 785 789 791 793 799 803 807 807 810 813 816 819 822 824 826
736 733 732 734 731 723 738 727 731 734 749 753 749 761 746 723 736 733 735 739 741 744 749 756 762 766 769 775 778 782 785 788 790 794 796 800 802 805 808 813 815 818 820 823
727 716 719 719 714 717 716 729 734 735 750 776 750 752 755 739 721 719 719 726 730 735 740 745 751 760 766 771 774 777 781 783 785 787 790 793 796 799 803 807 809 813 815 819
727 722 712 706 720 715 721 740 777 785 784 786 753 754 738 712 707 704 709 714 720 724 732 739 745 749 755 761 765 768 771 773 776 779 781 785 788 792 795 799 803 806 810 813
741 744 718 701 708 723 728 737 777 784 799 784 760 762 735 702 696 697 699 702 709 718 724 729 733 737 743 749 755 761 765 768 771 773 776 780 784 786 789 791 795 799 802 805
731 728 699 699 696 705 723 738 728 758 764 776 766 740 717 703 705 698 697 697 706 710 715 719 724 729 734 738 742 746 753 760 764 766 770 772 775 781 783 785 789 794 796 800
709 727 700 696 693 697 709 712 744 750 778 788 749 750 740 723 714 703 700 702 700 704 709 714 717 720 724 728 731 737 744 748 751 759 762 767 770 772 777 778 782 786 790 794
702 717 711 700 697 705 715 723 722 730 749 771 777 758 718 716 708 702 699 698 697 697 697 703 707 712 717 720 724 729 736 741 749 754 754 757 760 764 769 771 776 781 785 790
695 707 725 714 691 683 690 708 717 753 746 745 757 757 707 707 704 699 699 694 693 692 694 694 694 702 709 713 717 722 729 735 741 747 747 750 751 758 761 765 771 776 781 786
694 710 731 718 701 684 688 697 699 711 727 742 770 753 699 699 700 693 690 690 690 691 691 691 691 694 702 710 714 719 722 727 735 739 743 745 747 751 757 756 769 775 777 782
693 704 713 721 710 694 698 691 695 708 740 737 739 724 708 702 697 692 690 689 687 690 688 689 690 691 693 702 708 713 716 723 728 732 737 738 743 746 750 756 762 770 773 777
691 706 703 695 690 692 692 691 693 700 706 716 716 715 704 696 691 687 686 684 685 687 684 686 688 688 689 694 701 708 713 717 723 727 730 735 737 741 744 753 757 764 769 771
694 702 700 702 691 685 689 691 688 687 690 695 701 706 686 680 679 681 681 683 686 686 683 683 687 688 691 695 701 705 708 714 721 726 729 733 739 744 749 752 755 760 765 774
699 711 700 710 696 698 710 689 685 688 682 686 704 692 679 679 675 674 674 678 680 680 684 684 687 688 693 696 699 707 712 717 722 726 733 738 742 746 750 753 758 763 768 774
703 712 707 716 712 718 684 666 669 680 677 673 676 675 675 674 669 672 672 677 680 682 683 687 691 695 698 699 703 707 712 718 725 731 735 739 744 748 752 755 759 763 769 773
695 714 726 726 709 696 682 667 672 678 684 664 669 669 669 669 669 683 675 674 678 682 683 687 692 697 702 705 709 712 717 721 726 731 735 739 742 746 751 756 761 765 770 774
699 701 721 728 720 715 681 668 656 660 697 664 662 667 670 670 695 689 679 677 681 683 686 690 695 699 703 708 711 714 719 724 728 731 735 739 744 748 753 757 763 768 772 776
714 723 730 730 727 706 667 659 658 693 704 661 659 662 663 675 677 675 679 680 680 683 688 692 696 700 706 710 714 718 722 725 728 732 736 742 746 750 754 759 763 767 771 774
703 711 724 727 727 718 664 659 675 675 662 657 658 658 664 669 674 676 678 679 682 686 690 693 698 703 708 712 715 719 722 726 730 734 739 744 748 753 756 760 763 766 769 773
696 692 699 697 697 674 665 664 667 665 671 661 656 655 664 670 673 675 678 680 684 688 693 696 700 706 711 715 718 722 725 728 733 738 742 746 750 754 757 760 763 767 770 774
675 673 680 683 671 665 666 665 659 663 665 659 656 656 661 666 670 672 677 682 686 691 696 700 704 709 714 718 722 725 728 732 736 740 745 749 751 754 758 761 764 767 771 775
670 667 669 670 660 657 659 656 656 662 660 657 655 655 659 666 671 673 680 685 689 693 699 704 710 716 722 724 727 731 734 736 741 745 750 754 757 760 764 768 772 774 777 780
656 660 672 675 654 656 654 651 652 654 657 655 659 655 654 661 667 672 680 685 691 699 704 711 718 722 729 730 734 737 739 740 745 752 757 761 764 767 770 774 777 780 781 783